Time,TemperatureF,DewpointF,PressureIn,WindDirection,WindDirectionDegrees,WindSpeedMPH,WindSpeedGustMPH,Humidity,HourlyPrecipIn,Conditions,Clouds,dailyrainin,SoftwareType,DateUTC
2013-02-25 00:12:00,34.0,21.0,28.04,West,271,2.0,-999.0,60,-99.99,,,0.00,weatherlink.com 1.10,2013-02-25 05:12:00,
2013-02-25 00:27:00,33.8,21.0,28.10,NNW,334,0.0,-999.0,60,-99.99,,,0.00,weatherlink.com 1.10,2013-02-25 05:27:00,
2013-02-25 00:42:00,33.5,21.0,27.63,NNW,334,4.0,-999.0,61,-99.99,,,0.00,weatherlink.com 1.10,2013-02-25 05:42:00,
2013-02-25 00:59:00,33.4,22.0,27.88,WSW,252,0.0,-999.0,62,-99.99,,,0.00,weatherlink.com 1.10,2013-02-25 05:59:00,
2013-02-25 01:13:00,33.3,21.0,27.88,SW,229,0.0,-999.0,62,-99.99,,,0.00,weatherlink.com 1.10,2013-02-25 06:13:00,
2013-02-25 01:28:00,33.1,22.0,27.88,West,263,0.0,-999.0,63,-99.99,,,0.00,weatherlink.com 1.10,2013-02-25 06:28:00,
2013-02-25 01:43:00,32.8,21.0,27.88,West,260,0.0,-999.0,63,-99.99,,,0.00,weatherlink.com 1.10,2013-02-25 06:43:00,
2013-02-25 01:58:00,32.6,22.0,27.91,West,280,0.0,-999.0,64,-99.99,,,0.00,weatherlink.com 1.10,2013-02-25 06:58:00,
2013-02-25 02:13:00,32.2,21.0,27.91,NNW,329,0.0,-999.0,64,-99.99,,,0.00,weatherlink.com 1.10,2013-02-25 07:13:00,
2013-02-25 02:28:00,31.6,21.0,27.91,North,350,0.0,-999.0,66,-99.99,,,0.00,weatherlink.com 1.10,2013-02-25 07:28:00,
2013-02-25 02:43:00,31.5,22.0,27.91,WNW,286,0.0,-999.0,67,-99.99,,,0.00,weatherlink.com 1.10,2013-02-25 07:43:00,
2013-02-25 02:58:00,31.4,22.0,27.91,WNW,286,0.0,-999.0,67,-99.99,,,0.00,weatherlink.com 1.10,2013-02-25 07:58:00,
2013-02-25 03:13:00,31.2,21.0,27.91,WNW,286,0.0,-999.0,67,-99.99,,,0.00,weatherlink.com 1.10,2013-02-25 08:13:00,
2013-02-25 03:28:00,30.8,22.0,27.91,WNW,286,0.0,-999.0,69,-99.99,,,0.00,weatherlink.com 1.10,2013-02-25 08:28:00,
2013-02-25 03:43:00,30.5,21.0,27.91,WNW,286,0.0,-999.0,69,-99.99,,,0.00,weatherlink.com 1.10,2013-02-25 08:43:00,
2013-02-25 03:58:00,30.4,22.0,27.91,West,273,0.0,-999.0,70,-99.99,,,0.00,weatherlink.com 1.10,2013-02-25 08:58:00,
2013-02-25 04:13:00,30.2,22.0,27.91,West,269,0.0,-999.0,70,-99.99,,,0.00,weatherlink.com 1.10,2013-02-25 09:13:00,
2013-02-25 04:28:00,30.5,22.0,27.91,West,269,0.0,-999.0,70,-99.99,,,0.00,weatherlink.com 1.10,2013-02-25 09:28:00,
2013-02-25 04:43:00,30.6,22.0,27.91,NW,304,0.0,-999.0,70,-99.99,,,0.00,weatherlink.com 1.10,2013-02-25 09:43:00,
2013-02-25 04:58:00,29.8,21.0,27.91,WNW,303,0.0,-999.0,71,-99.99,,,0.00,weatherlink.com 1.10,2013-02-25 09:58:00,
2013-02-25 05:13:00,29.8,21.0,31.97,WSW,246,0.0,-999.0,71,-99.99,,,0.00,weatherlink.com 1.10,2013-02-25 10:13:00,
2013-02-25 05:28:00,30.4,22.0,31.97,WNW,292,0.0,-999.0,70,-99.99,,,0.00,weatherlink.com 1.10,2013-02-25 10:28:00,
2013-02-25 05:43:00,29.9,22.0,31.97,WNW,291,0.0,-999.0,71,-99.99,,,0.00,weatherlink.com 1.10,2013-02-25 10:43:00,
2013-02-25 05:58:00,29.8,21.0,31.97,WNW,292,0.0,-999.0,71,-99.99,,,0.00,weatherlink.com 1.10,2013-02-25 10:58:00,
2013-02-25 06:13:00,30.1,22.0,31.97,WNW,292,0.0,-999.0,71,-99.99,,,0.00,weatherlink.com 1.10,2013-02-25 11:13:00,
2013-02-25 06:28:00,30.3,22.0,31.97,WNW,292,0.0,-999.0,70,-99.99,,,0.00,weatherlink.com 1.10,2013-02-25 11:28:00,
2013-02-25 06:43:00,30.6,22.0,31.97,NW,323,0.0,-999.0,70,-99.99,,,0.00,weatherlink.com 1.10,2013-02-25 11:43:00,
2013-02-25 06:58:00,30.5,22.0,31.97,West,272,0.0,-999.0,70,-99.99,,,0.00,weatherlink.com 1.10,2013-02-25 11:58:00,
2013-02-25 07:13:00,30.4,22.0,31.97,West,273,0.0,-999.0,70,-99.99,,,0.00,weatherlink.com 1.10,2013-02-25 12:13:00,
2013-02-25 07:28:00,30.3,22.0,31.97,West,273,0.0,-999.0,71,-99.99,,,0.00,weatherlink.com 1.10,2013-02-25 12:28:00,
2013-02-25 07:43:00,30.6,23.0,31.97,West,273,0.0,-999.0,72,-99.99,,,0.00,weatherlink.com 1.10,2013-02-25 12:43:00,
2013-02-25 07:59:00,32.0,23.0,31.97,West,272,0.0,-999.0,69,-99.99,,,0.00,weatherlink.com 1.10,2013-02-25 12:59:00,
2013-02-25 08:13:00,33.5,23.0,31.97,West,272,0.0,-999.0,66,-99.99,,,0.00,weatherlink.com 1.10,2013-02-25 13:13:00,
2013-02-25 08:28:00,34.4,23.0,31.97,NW,304,0.0,-999.0,64,-99.99,,,0.00,weatherlink.com 1.10,2013-02-25 13:28:00,
2013-02-25 08:43:00,35.7,24.0,31.97,West,267,3.0,-999.0,62,-99.99,,,0.00,weatherlink.com 1.10,2013-02-25 13:43:00,
2013-02-25 08:58:00,36.1,24.0,31.97,WNW,291,0.0,-999.0,61,-99.99,,,0.00,weatherlink.com 1.10,2013-02-25 13:58:00,
2013-02-25 09:13:00,36.9,24.0,31.97,NNW,327,2.0,-999.0,61,-99.99,,,0.00,weatherlink.com 1.10,2013-02-25 14:13:00,
2013-02-25 09:28:00,37.6,25.0,31.97,NNW,331,0.0,-999.0,60,-99.99,,,0.00,weatherlink.com 1.10,2013-02-25 14:28:00,
2013-02-25 09:43:00,39.0,25.0,31.97,NW,315,0.0,-999.0,57,-99.99,,,0.00,weatherlink.com 1.10,2013-02-25 14:43:00,
2013-02-25 09:58:00,39.8,26.0,31.97,WNW,289,1.0,-999.0,57,-99.99,,,0.00,weatherlink.com 1.10,2013-02-25 14:58:00,
2013-02-25 10:14:00,40.7,26.0,31.97,NW,311,0.0,-999.0,56,-99.99,,,0.00,weatherlink.com 1.10,2013-02-25 15:14:00,
2013-02-25 10:28:00,41.1,26.0,31.97,SE,138,0.0,-999.0,55,-99.99,,,0.00,weatherlink.com 1.10,2013-02-25 15:28:00,
2013-02-25 10:44:00,41.7,26.0,31.97,NNW,337,2.0,-999.0,55,-99.99,,,0.00,weatherlink.com 1.10,2013-02-25 15:44:00,
2013-02-25 10:59:00,42.5,27.0,31.97,NE,38,0.0,-999.0,54,-99.99,,,0.00,weatherlink.com 1.10,2013-02-25 15:59:00,
2013-02-25 11:14:00,42.7,26.0,0.00,NNW,336,1.0,-999.0,53,-99.99,,,0.00,weatherlink.com 1.10,2013-02-25 16:14:00,
2013-02-25 11:29:00,43.2,27.0,0.00,West,281,3.0,-999.0,53,-99.99,,,0.00,weatherlink.com 1.10,2013-02-25 16:29:00,
2013-02-25 11:44:00,44.5,28.0,0.00,South,185,0.0,-999.0,52,-99.99,,,0.00,weatherlink.com 1.10,2013-02-25 16:44:00,
2013-02-25 11:59:00,44.8,28.0,0.00,West,268,0.0,-999.0,52,-99.99,,,0.00,weatherlink.com 1.10,2013-02-25 16:59:00,
2013-02-25 12:14:00,45.4,28.0,0.00,WNW,291,2.0,-999.0,51,-99.99,,,0.00,weatherlink.com 1.10,2013-02-25 17:14:00,
2013-02-25 12:29:00,46.2,29.0,0.00,SSW,200,0.0,-999.0,51,-99.99,,,0.00,weatherlink.com 1.10,2013-02-25 17:29:00,
2013-02-25 12:44:00,46.3,28.0,0.00,SW,227,0.0,-999.0,50,-99.99,,,0.00,weatherlink.com 1.10,2013-02-25 17:44:00,
2013-02-25 12:59:00,46.7,29.0,0.00,NNW,345,3.0,-999.0,50,-99.99,,,0.00,weatherlink.com 1.10,2013-02-25 17:59:00,
2013-02-25 13:14:00,46.0,28.0,0.00,SSE,156,0.0,-999.0,50,-99.99,,,0.00,weatherlink.com 1.10,2013-02-25 18:14:00,
2013-02-25 13:29:00,46.8,28.0,0.00,ENE,69,0.0,-999.0,49,-99.99,,,0.00,weatherlink.com 1.10,2013-02-25 18:29:00,
2013-02-25 13:44:00,47.0,29.0,27.70,SSE,151,0.0,-999.0,50,-99.99,,,0.00,weatherlink.com 1.10,2013-02-25 18:44:00,
2013-02-25 13:59:00,47.6,30.0,27.67,SE,140,0.0,-999.0,50,-99.99,,,0.00,weatherlink.com 1.10,2013-02-25 18:59:00,
2013-02-25 14:14:00,47.7,29.0,27.79,ENE,59,0.0,-999.0,49,-99.99,,,0.00,weatherlink.com 1.10,2013-02-25 19:14:00,
2013-02-25 14:44:00,47.8,29.0,27.79,ENE,67,0.0,-999.0,48,-99.99,,,0.00,weatherlink.com 1.10,2013-02-25 19:44:00,
2013-02-25 14:59:00,48.0,29.0,27.79,NNE,24,0.0,-999.0,49,-99.99,,,0.00,weatherlink.com 1.10,2013-02-25 19:59:00,
2013-02-25 15:14:00,47.9,29.0,27.79,North,355,0.0,-999.0,49,-99.99,,,0.00,weatherlink.com 1.10,2013-02-25 20:14:00,
2013-02-25 15:29:00,48.1,29.0,27.79,ENE,57,1.0,-999.0,48,-99.99,,,0.00,weatherlink.com 1.10,2013-02-25 20:29:00,
2013-02-25 15:44:00,48.2,30.0,27.79,ENE,68,1.0,-999.0,49,-99.99,,,0.00,weatherlink.com 1.10,2013-02-25 20:44:00,
2013-02-25 15:59:00,48.0,29.0,27.89,ESE,107,0.0,-999.0,49,-99.99,,,0.00,weatherlink.com 1.10,2013-02-25 20:59:00,
2013-02-25 16:14:00,47.9,29.0,27.89,NNE,16,0.0,-999.0,48,-99.99,,,0.00,weatherlink.com 1.10,2013-02-25 21:14:00,
2013-02-25 16:29:00,47.7,29.0,27.80,NNE,22,0.0,-999.0,49,-99.99,,,0.00,weatherlink.com 1.10,2013-02-25 21:29:00,
2013-02-25 16:44:00,47.4,29.0,27.91,NNE,22,0.0,-999.0,49,-99.99,,,0.00,weatherlink.com 1.10,2013-02-25 21:44:00,
2013-02-25 16:59:00,47.4,29.0,27.91,NNE,22,0.0,-999.0,49,-99.99,,,0.00,weatherlink.com 1.10,2013-02-25 21:59:00,
2013-02-25 17:14:00,46.7,29.0,27.59,NNE,22,0.0,-999.0,50,-99.99,,,0.00,weatherlink.com 1.10,2013-02-25 22:14:00,
2013-02-25 17:30:00,45.8,27.0,27.82,NNE,22,0.0,-999.0,49,-99.99,,,0.00,weatherlink.com 1.10,2013-02-25 22:30:00,
2013-02-25 17:44:00,45.0,28.0,27.82,NNE,22,0.0,-999.0,52,-99.99,,,0.00,weatherlink.com 1.10,2013-02-25 22:44:00,
2013-02-25 17:59:00,43.9,28.0,27.82,NNE,22,0.0,-999.0,53,-99.99,,,0.00,weatherlink.com 1.10,2013-02-25 22:59:00,
2013-02-25 18:14:00,42.5,27.0,0.00,NNE,22,0.0,-999.0,55,-99.99,,,0.00,weatherlink.com 1.10,2013-02-25 23:14:00,
2013-02-25 18:29:00,41.8,28.0,0.00,ENE,63,0.0,-999.0,58,-99.99,,,0.00,weatherlink.com 1.10,2013-02-25 23:29:00,
2013-02-25 18:44:00,41.8,28.0,0.00,SSE,148,0.0,-999.0,59,-99.99,,,0.00,weatherlink.com 1.10,2013-02-25 23:44:00,
2013-02-25 18:59:00,41.3,29.0,0.00,SSE,148,0.0,-999.0,61,-99.99,,,0.00,weatherlink.com 1.10,2013-02-25 23:59:00,
2013-02-25 19:14:00,40.6,28.0,0.00,ESE,104,0.0,-999.0,61,-99.99,,,0.00,weatherlink.com 1.10,2013-02-26 00:14:00,
2013-02-25 19:29:00,40.0,28.0,0.00,SSE,161,0.0,-999.0,63,-99.99,,,0.00,weatherlink.com 1.10,2013-02-26 00:29:00,
2013-02-25 19:44:00,39.5,27.0,0.00,SE,130,0.0,-999.0,62,-99.99,,,0.00,weatherlink.com 1.10,2013-02-26 00:44:00,
2013-02-25 19:59:00,38.9,27.0,0.00,SE,130,0.0,-999.0,63,-99.99,,,0.00,weatherlink.com 1.10,2013-02-26 00:59:00,
2013-02-25 20:14:00,38.2,27.0,0.00,SE,130,0.0,-999.0,64,-99.99,,,0.00,weatherlink.com 1.10,2013-02-26 01:14:00,
2013-02-25 20:29:00,37.8,27.0,0.00,SE,130,0.0,-999.0,65,-99.99,,,0.00,weatherlink.com 1.10,2013-02-26 01:29:00,
2013-02-25 20:44:00,37.2,27.0,0.00,SE,130,0.0,-999.0,66,-99.99,,,0.00,weatherlink.com 1.10,2013-02-26 01:44:00,
2013-02-25 20:59:00,36.5,27.0,0.00,SE,130,0.0,-999.0,68,-99.99,,,0.00,weatherlink.com 1.10,2013-02-26 01:59:00,
2013-02-25 21:14:00,35.5,27.0,0.00,SE,130,0.0,-999.0,70,-99.99,,,0.00,weatherlink.com 1.10,2013-02-26 02:14:00,
2013-02-25 21:29:00,35.0,26.0,0.00,SE,130,0.0,-999.0,71,-99.99,,,0.00,weatherlink.com 1.10,2013-02-26 02:29:00,
2013-02-25 21:44:00,34.4,27.0,0.00,SE,130,0.0,-999.0,73,-99.99,,,0.00,weatherlink.com 1.10,2013-02-26 02:44:00,
2013-02-25 21:59:00,33.9,26.0,0.00,SE,130,0.0,-999.0,74,-99.99,,,0.00,weatherlink.com 1.10,2013-02-26 02:59:00,
2013-02-25 22:14:00,33.4,26.0,0.00,SE,130,0.0,-999.0,75,-99.99,,,0.00,weatherlink.com 1.10,2013-02-26 03:14:00,
2013-02-25 22:29:00,33.0,26.0,0.00,SE,130,0.0,-999.0,76,-99.99,,,0.00,weatherlink.com 1.10,2013-02-26 03:29:00,
2013-02-25 22:44:00,32.7,26.0,0.00,SE,130,0.0,-999.0,77,-99.99,,,0.00,weatherlink.com 1.10,2013-02-26 03:44:00,
2013-02-25 22:59:00,32.4,26.0,0.00,SE,130,0.0,-999.0,78,-99.99,,,0.00,weatherlink.com 1.10,2013-02-26 03:59:00,
2013-02-25 23:14:00,32.2,26.0,0.00,SE,130,0.0,-999.0,78,-99.99,,,0.00,weatherlink.com 1.10,2013-02-26 04:14:00,
2013-02-25 23:29:00,31.9,26.0,0.00,SE,130,0.0,-999.0,78,-99.99,,,0.00,weatherlink.com 1.10,2013-02-26 04:29:00,
2013-02-25 23:44:00,31.5,26.0,27.36,SE,130,0.0,-999.0,79,-99.99,,,0.00,weatherlink.com 1.10,2013-02-26 04:44:00,
2013-02-25 23:59:00,31.2,26.0,27.36,SE,130,0.0,-999.0,80,-99.99,,,0.00,weatherlink.com 1.10,2013-02-26 04:59:00,